Theta_e
290 290 290 291 291 291 292 292 293 293 293 294 295 295 295 295 294 294 293 293 292 292 292 292 291 292 291 290 290 290 290 292 291 282 286 286 286 285 284 284 285 283 284
288 288 288 289 289 288 287 288 290 291 292 292 292 292 293 293 293 293 292 291 291 290 291 290 290 289 290 289 288 288 288 288 288 281 281 282 284 284 283 281 282 282 283
286 286 287 287 287 286 285 286 287 288 289 291 290 290 290 291 291 292 292 291 290 291 290 289 289 289 288 288 287 287 286 282 285 284 280 281 281 283 282 281 282 281 281
285 285 285 286 286 284 284 284 285 285 286 288 289 289 289 289 289 289 289 289 289 290 290 289 289 288 287 287 286 286 284 283 283 284 282 279 280 281 281 279 278 281 281
284 284 284 285 285 283 282 284 284 283 284 286 286 288 288 288 287 288 288 288 287 288 288 287 288 288 288 288 286 285 284 283 282 282 282 279 278 277 278 280 280 280 281
283 283 284 283 283 281 281 281 282 282 283 283 284 285 286 287 289 290 290 287 287 286 286 287 287 286 286 289 290 289 286 284 282 282 282 279 279 279 279 279 279 278 277
282 282 282 281 282 280 280 280 279 279 281 281 282 283 284 286 289 290 289 287 287 286 286 286 285 285 285 284 288 289 288 289 288 284 282 281 280 279 280 279 279 279 279
281 281 281 280 280 280 278 278 278 278 278 279 280 282 283 283 286 288 288 287 286 286 286 286 285 285 284 283 284 284 284 284 286 285 284 284 283 282 281 281 280 280 280
280 280 280 280 279 278 275 276 277 276 276 276 278 279 281 282 285 286 287 286 285 285 286 286 285 285 285 287 283 282 283 282 286 288 286 286 285 285 283 280 277 276 275
279 279 279 279 277 276 275 275 275 275 275 275 276 277 279 280 283 285 285 285 284 285 285 285 285 284 287 287 283 282 281 281 281 282 281 283 284 283 283 281 279 276 275
278 277 277 277 276 276 274 274 273 272 272 272 273 275 276 279 280 284 285 284 284 284 284 284 284 286 286 286 286 283 283 283 282 279 279 280 280 280 280 280 280 279 275
275 274 273 273 274 274 272 271 270 270 269 269 271 272 275 278 281 283 285 285 286 284 283 285 285 285 286 287 285 285 285 283 280 278 278 278 277 277 279 278 278 278 278
269 267 267 268 269 269 268 268 267 268 268 268 269 271 273 277 280 283 284 284 284 284 284 285 286 285 285 286 286 286 284 281 279 278 277 277 277 277 276 275 275 276 275
263 263 263 263 264 265 266 266 266 266 266 267 267 269 271 275 278 280 281 280 281 282 283 283 285 283 283 283 282 285 283 280 279 278 277 276 275 273 272 273 272 272 271
260 261 261 261 261 262 263 264 264 265 266 265 266 267 268 269 273 279 280 279 280 280 281 281 280 279 279 280 280 281 281 278 277 277 275 272 272 272 271 272 271 271 269
259 260 260 260 260 261 261 261 266 267 269 270 271 271 270 273 276 277 279 281 283 283 281 277 277 277 277 278 278 278 276 276 275 274 272 272 270 270 270 270 271 269 268
259 259 260 260 260 260 260 259 259 262 267 268 269 270 272 273 275 276 278 281 284 283 279 277 276 277 277 278 276 274 273 274 273 272 271 271 270 270 269 269 269 269 268
259 259 259 260 260 260 260 260 260 259 258 260 265 267 269 271 273 275 278 282 280 281 279 276 276 277 278 275 274 273 272 271 271 271 270 270 270 269 268 268 268 267 267
259 260 260 261 261 261 260 260 260 259 259 259 261 264 265 269 273 276 279 277 278 278 277 276 277 278 275 273 273 272 271 270 270 270 269 269 269 268 268 268 268 267 267
259 260 261 261 262 262 261 260 260 259 259 260 260 261 263 266 269 274 276 278 279 279 277 277 276 275 274 273 271 270 270 269 269 268 268 267 268 268 267 266 266 265 265
259 260 261 262 263 263 263 261 260 260 260 260 260 263 268 267 270 273 274 279 279 278 275 273 273 272 272 271 270 269 268 268 267 266 266 266 266 266 266 267 266 266 266
261 262 262 262 263 264 265 263 262 261 261 261 262 264 270 269 272 273 272 272 272 273 272 272 270 270 269 269 268 267 266 266 266 265 265 265 265 265 265 265 265 265 265
261 261 262 263 265 265 265 264 263 263 262 263 264 265 269 268 268 268 268 268 269 268 269 268 267 267 268 268 268 267 266 265 265 265 264 264 264 264 264 264 264 264 264
261 261 261 262 263 264 265 265 265 265 265 266 265 264 264 264 264 264 265 265 265 265 265 265 265 265 265 266 266 266 265 265 265 265 265 263 263 263 263 263 264 263 263
260 260 260 261 261 262 262 263 263 263 263 263 262 262 263 263 262 262 263 263 263 263 263 263 263 263 263 263 262 263 265 264 263 264 264 263 262 262 262 262 262 262 262
259 259 260 260 260 260 261 261 260 261 261 261 261 261 261 261 261 261 262 262 261 261 262 261 261 261 261 260 261 262 263 262 261 261 261 260 260 259 259 258 258 257 259
Wind_Speed
14 14 12 11 11 11 10 11 10 11 12 11 11 12 13 12 13 15 16 16 17 16 16 17 18 16 11 10 8 8 8 5 4 2 4 7 11 10 9 7 5 5 5
12 12 12 11 11 11 12 13 13 13 12 11 12 12 12 13 13 15 16 15 18 18 18 18 19 13 17 14 11 12 10 8 5 7 5 5 8 11 10 10 7 5 5
11 11 11 10 11 11 12 11 11 13 14 13 11 12 12 12 13 15 15 16 17 19 19 20 19 18 18 14 13 13 10 6 4 4 5 3 3 10 9 7 8 6 5
11 11 10 11 11 11 12 12 12 12 12 13 13 13 13 12 12 13 13 15 17 18 18 19 20 21 20 19 15 16 12 11 9 5 4 5 4 7 8 8 5 5 5
12 12 11 11 10 10 11 11 12 13 12 12 13 13 13 13 9 12 13 15 17 18 18 18 20 20 24 23 15 16 16 13 11 11 8 5 7 6 12 7 7 6 7
11 12 12 12 11 10 11 11 11 12 12 13 14 14 13 10 18 21 19 15 16 18 18 19 18 19 20 26 28 27 24 20 18 14 12 12 13 10 10 9 8 6 6
11 13 13 12 13 12 12 13 12 12 12 13 13 13 14 14 20 22 23 15 16 18 18 17 16 14 17 17 26 26 27 29 27 19 20 16 14 15 14 13 12 9 4
12 13 14 13 14 14 14 14 15 13 14 14 14 14 15 13 24 24 23 16 16 19 20 19 18 17 17 18 18 20 18 18 20 15 18 15 13 14 16 12 13 8 4
14 15 14 13 13 13 14 16 15 14 16 15 15 16 15 17 24 26 22 13 16 19 18 20 18 18 22 27 20 21 19 16 17 19 15 17 21 26 19 11 10 10 4
15 15 15 14 14 14 14 15 15 14 16 15 18 17 19 19 24 27 23 11 14 13 16 18 23 17 22 26 22 19 20 18 15 14 11 15 18 19 26 13 12 11 5
14 14 15 16 16 16 15 15 15 16 17 18 19 19 19 19 20 28 27 14 12 12 13 13 12 27 28 26 31 18 19 13 20 14 12 11 11 13 11 9 10 9 7
16 16 16 17 15 14 18 16 17 17 19 20 19 19 15 17 21 23 26 26 23 14 14 11 12 24 30 30 25 28 26 21 13 13 12 12 12 11 10 10 9 7 4
18 18 18 18 16 16 17 18 16 16 15 16 15 16 16 14 12 23 24 25 27 18 13 15 20 24 27 25 30 29 26 14 15 15 14 13 11 11 12 10 9 8 6
20 20 18 18 18 17 14 14 15 15 15 15 15 16 15 14 12 9 8 9 18 17 19 14 14 17 20 18 16 22 14 13 14 13 12 11 11 12 10 9 9 7 6
18 17 17 15 16 16 15 13 14 16 17 16 15 15 15 16 13 20 17 8 8 12 12 7 9 10 10 11 11 13 12 12 11 10 11 12 12 12 10 9 8 8 5
17 14 14 14 14 14 14 14 24 31 35 37 38 31 18 32 37 37 34 35 28 25 11 8 9 10 10 10 10 10 10 13 10 10 12 12 12 12 12 10 8 7 6
17 17 14 16 14 14 14 15 16 16 30 32 34 35 37 35 36 35 36 35 28 21 10 10 9 9 9 10 10 10 11 10 12 10 10 11 12 11 14 10 9 7 6
17 22 16 14 14 14 14 14 13 14 14 14 20 26 29 33 32 32 35 22 13 14 9 9 8 8 8 7 10 11 11 12 10 10 10 11 11 12 12 11 10 9 8
16 14 15 15 14 16 14 14 13 14 14 14 13 19 20 29 29 28 25 11 10 7 8 9 8 7 8 9 9 9 11 11 11 10 10 10 10 10 9 9 8 10 8
16 21 19 15 14 14 12 12 12 12 13 11 12 13 13 13 12 7 8 11 6 5 8 8 8 7 8 10 10 10 10 11 11 11 10 9 8 8 9 9 8 8 6
13 14 20 15 13 13 11 11 11 11 11 11 12 13 25 14 13 8 8 4 4 5 8 9 10 8 7 9 10 10 11 10 11 11 10 9 9 8 8 7 7 6 5
13 13 13 13 13 12 9 8 8 10 10 11 12 13 25 13 7 4 5 8 8 8 8 9 8 8 8 9 10 10 11 11 11 11 11 10 9 7 7 7 6 5 5
12 13 13 12 12 11 8 7 8 8 10 10 11 10 5 6 6 6 6 7 7 7 6 8 9 8 8 7 8 9 11 11 10 11 11 9 8 8 7 7 6 5 4
12 12 12 11 10 11 10 9 8 9 9 6 7 7 7 6 7 7 7 7 8 8 8 8 8 11 10 9 8 8 9 9 9 10 12 10 8 9 7 6 6 5 4
12 12 11 10 10 10 10 10 9 9 8 8 7 7 7 7 7 7 8 8 8 9 10 9 9 12 12 14 13 13 14 15 11 10 7 9 9 9 6 5 5 4 4
11 12 11 10 10 10 10 9 9 9 9 8 8 7 8 8 8 8 9 9 9 10 11 9 12 15 15 13 13 15 14 14 11 11 7 7 7 5 4 4 5 3 4
Wind_Direction
1 360 357 354 353 343 339 340 337 321 306 295 288 271 257 244 242 237 230 231 230 227 223 217 217 210 206 195 187 192 197 181 159 58 145 161 176 173 161 180 191 188 207
350 347 346 344 345 343 339 335 333 327 319 308 295 280 270 264 245 241 240 231 231 230 227 224 219 208 212 205 195 196 199 193 142 157 162 158 182 183 171 177 193 197 200
343 338 335 337 336 334 332 326 325 324 324 320 299 283 272 270 259 250 240 238 237 236 228 227 223 210 213 205 201 197 191 173 161 134 152 163 146 172 181 177 184 195 214
332 327 323 327 328 329 326 323 324 323 316 316 313 305 291 272 265 261 250 242 240 241 237 231 228 219 212 206 201 198 186 177 170 154 143 162 161 167 168 177 192 201 213
319 316 314 316 312 314 315 314 317 318 316 313 312 307 296 288 271 258 252 251 244 240 238 234 234 228 221 212 198 193 186 183 180 184 172 169 173 161 188 175 186 181 209
304 300 304 307 303 304 307 309 309 308 308 311 310 307 302 288 284 275 261 250 248 247 242 236 232 227 224 219 220 201 194 184 191 187 187 195 186 179 165 169 178 170 208
294 299 298 301 299 303 306 306 303 307 306 305 301 301 300 297 292 280 267 258 252 250 245 239 232 229 219 211 218 218 207 205 196 187 193 197 177 178 163 171 179 190 191
274 278 284 291 293 298 306 306 306 307 306 301 300 297 292 289 292 288 280 268 255 250 250 241 235 227 215 207 205 205 209 209 208 197 202 194 177 167 171 175 173 158 138
271 273 269 270 275 284 290 296 299 305 301 297 292 292 287 286 288 287 284 268 260 254 247 245 241 229 221 206 205 205 201 204 208 202 198 180 163 159 158 146 161 163 172
282 278 276 272 270 266 272 282 287 287 287 291 291 287 281 278 280 279 278 267 262 257 247 242 241 235 224 211 210 203 205 193 184 179 173 163 158 165 168 169 159 175 138
290 285 283 280 276 271 273 281 282 287 288 286 285 282 277 272 270 271 268 263 257 261 253 245 232 226 226 223 213 211 210 178 183 170 164 159 157 163 168 160 166 163 163
301 294 291 289 287 285 283 282 279 280 280 280 282 282 275 271 263 265 265 262 262 257 256 253 238 223 221 214 212 215 203 176 173 171 174 175 166 171 157 156 152 146 162
306 303 300 296 291 286 282 279 279 274 270 273 276 278 279 277 267 266 264 264 263 262 256 258 235 220 217 213 213 209 191 180 181 183 180 177 168 147 139 137 137 154 143
301 300 300 297 294 288 282 277 273 270 270 270 272 273 275 273 273 271 262 258 267 269 260 258 225 205 197 201 202 211 194 183 184 177 167 148 139 140 144 145 154 158 153
298 298 296 291 288 288 281 280 276 274 271 272 268 273 278 275 273 281 283 255 255 261 265 225 193 195 201 202 195 208 179 167 171 162 151 146 140 138 143 151 160 158 164
294 292 289 290 286 284 284 281 273 279 280 278 278 273 268 267 272 272 270 273 268 270 256 199 201 194 200 193 188 176 160 155 152 145 150 149 145 148 148 156 150 156 160
292 292 289 286 283 283 282 283 286 281 282 284 284 281 277 274 271 272 267 266 259 255 240 201 198 193 195 190 172 157 148 144 137 145 147 145 144 143 149 149 146 146 152
288 287 285 281 279 277 276 277 280 284 286 285 281 282 282 284 281 277 280 250 250 237 225 193 190 191 183 150 149 148 142 138 145 146 144 147 148 147 148 150 152 153 159
290 287 284 281 277 275 276 276 277 278 279 283 287 285 283 282 279 265 273 254 234 229 188 182 177 170 142 143 140 139 143 141 143 139 137 141 141 143 142 143 145 151 154
291 287 287 286 284 279 274 273 275 276 279 281 283 286 292 298 281 274 261 258 189 229 164 162 134 133 136 136 136 138 134 136 136 131 131 127 127 131 135 139 143 150 166
294 291 290 289 290 289 278 267 270 276 279 281 280 281 282 279 277 287 289 205 160 135 123 126 121 120 123 124 129 135 136 132 130 128 127 126 130 134 137 140 143 145 142
294 298 300 297 295 292 287 278 271 274 276 278 282 282 288 284 294 326 15 69 81 95 115 123 122 127 130 134 134 135 135 132 130 127 126 129 131 130 134 136 138 147 158
307 308 309 309 313 309 302 289 280 275 274 276 278 284 308 8 21 35 49 60 72 81 88 99 107 106 105 113 122 136 136 137 134 131 132 135 135 135 140 144 152 162 171
321 320 321 326 331 333 342 345 342 348 348 347 4 8 16 27 36 41 46 60 67 70 71 82 94 107 107 104 107 111 113 116 120 123 130 134 132 139 140 150 162 168 183
332 331 332 335 340 343 345 353 358 0 6 12 16 24 27 36 45 48 53 60 65 72 74 81 88 95 93 95 94 97 106 103 104 112 115 121 129 138 146 153 163 183 202
343 342 341 341 347 351 356 0 4 7 14 18 24 33 40 46 49 53 56 61 67 68 72 70 76 82 84 82 91 100 105 108 110 110 108 115 127 135 149 160 179 184 207